FW5767 Weather Reports


time (UTC)temp
F
wind
direction
speed
knots
gust
knots
rain 1hr
in
rain 24hr
in
rain mn
in
humidity
%
barometer
mb
20210723154420 70 15 4.3 8.7 0.00 0.00 0.00 69 1016.5
20210723153919 70 38 3.5 7.8 0.00 0.00 0.00 68 1016.4
20210723153421 70 45 3.5 7.8 0.00 0.00 0.00 68 1016.4
20210723152919 70 55 3.5 9.6 0.00 0.00 0.00 67 1016.5
20210723152419 70 20 4.3 10.4 0.00 0.00 0.00 68 1016.5
20210723151921 70 44 4.3 10.4 0.00 0.00 0.00 67 1016.6
20210723151421 70 71 6.1 10.4 0.00 0.00 0.00 68 1016.6
20210723150920 71 28 6.1 10.4 0.00 0.00 0.00 67 1016.5
20210723150421 70 26 5.2 10.4 0.00 0.00 0.00 68 1016.7
20210723145918 70 28 5.2 10.4 0.00 0.00 0.00 66 1016.7
20210723145420 70 35 5.2 10.4 0.00 0.00 0.00 67 1016.8
20210723144917 70 52 3.5 8.7 0.00 0.00 0.00 67 1017.0
20210723144414 71 32 2.6 8.7 0.00 0.00 0.00 68 1017.1
20210723143914 71 72 2.6 7.0 0.00 0.00 0.00 68 1017.1
20210723143413 71 80 2.6 7.0 0.00 0.00 0.00 67 1017.2
20210723142914 71 16 3.5 7.0 0.00 0.00 0.00 68 1017.2
20210723142415 71 78 4.3 9.6 0.00 0.00 0.00 65 1017.2
20210723141915 71 63 3.5 9.6 0.00 0.00 0.00 65 1017.3
20210723141413 72 24 2.6 6.1 0.00 0.00 0.00 66 1017.3
20210723140912 71 16 2.6 8.7 0.00 0.00 0.00 65 1017.3
20210723140411 71 69 2.6 8.7 0.00 0.00 0.00 66 1017.4
20210723135912 71 17 4.3 8.7 0.00 0.00 0.00 65 1017.4
20210723135414 71 42 5.2 8.7 0.00 0.00 0.00 65 1017.4
20210723134911 72 35 3.5 8.7 0.00 0.00 0.00 64 1017.4
20210723134411 72 16 3.5 7.8 0.00 0.00 0.00 64 1017.4
20210723133911 72 37 3.5 7.8 0.00 0.00 0.00 65 1017.3
20210723133412 72 103 3.5 7.8 0.00 0.00 0.00 64 1017.4
20210723132911 72 72 2.6 8.7 0.00 0.00 0.00 65 1017.4
20210723132412 72 119 3.5 8.7 0.00 0.00 0.00 65 1017.5
20210723131911 72 44 3.5 7.8 0.00 0.00 0.00 64 1017.5
20210723131409 72 70 3.5 8.7 0.00 0.00 0.00 65 1017.6
20210723130911 72 90 3.5 8.7 0.00 0.00 0.00 69 1017.5
20210723130410 71 84 2.6 7.0 0.00 0.00 0.00 70 1017.5
20210723125911 70 115 3.5 6.1 0.00 0.00 0.00 69 1017.6
20210723125406 70 119 3.5 8.7 0.00 0.00 0.00 66 1017.6
20210723124909 71 78 2.6 8.7 0.00 0.00 0.00 67 1017.6
20210723124405 71 69 2.6 6.1 0.00 0.00 0.00 68 1017.7
20210723123905 70 46 1.7 6.1 0.00 0.00 0.00 70 1017.7
20210723123407 69 77 2.6 5.2 0.00 0.00 0.00 69 1017.9
20210723122908 69 40 2.6 4.3 0.00 0.00 0.00 74 1017.9
20210723122406 68 67 1.7 7.0 0.00 0.00 0.00 74 1018.0
20210723121907 67 95 2.6 7.0 0.00 0.00 0.00 74 1018.2
20210723121403 67 84 2.6 7.0 0.00 0.00 0.00 74 1018.2
20210723120905 67 57 2.6 7.0 0.00 0.00 0.00 74 1018.4
20210723120403 67 99 2.6 6.1 0.00 0.00 0.00 74 1018.5
20210723115900 67 50 3.5 7.0 0.00 0.00 0.00 74 1018.5
20210723115359 67 27 2.6 7.0 0.00 0.00 0.00 74 1018.7
20210723114859 67 63 2.6 4.3 0.00 0.00 0.00 73 1018.7
20210723114359 67 55 2.6 5.2 0.00 0.00 0.00 74 1018.7
20210723113859 66 72 2.6 5.2 0.00 0.00 0.00 72 1018.8
20210723113359 67 32 1.7 6.1 0.00 0.00 0.00 75 1018.9
20210723112900 66 87 1.7 6.1 0.00 0.00 0.00 73 1018.9
20210723112400 66 62 1.7 5.2 0.00 0.00 0.00 72 1018.9
20210723111901 67 102 1.7 5.2 0.00 0.00 0.00 74 1018.9
20210723111358 66 65 1.7 5.2 0.00 0.00 0.00 74 1019.0
20210723110901 67 67 2.6 5.2 0.00 0.00 0.00 73 1019.1
20210723110358 67 74 2.6 7.0 0.00 0.00 0.00 74 1019.1
20210723105856 66 53 2.6 7.0 0.00 0.00 0.00 73 1019.1
20210723105359 67 65 2.6 7.0 0.00 0.00 0.00 74 1019.0
20210723104859 66 42 3.5 7.0 0.00 0.00 0.00 74 1019.1
20210723104353 66 41 2.6 7.0 0.00 0.00 0.00 75 1019.0
20210723103854 66 67 3.5 7.0 0.00 0.00 0.00 74 1019.1
20210723103354 66 22 3.5 7.0 0.00 0.00 0.00 75 1019.1
20210723102855 65 37 3.5 7.8 0.00 0.00 0.00 75 1019.2
20210723102351 65 37 3.5 7.8 0.00 0.00 0.00 74 1019.2
20210723101852 65 11 4.3 7.8 0.00 0.00 0.00 74 1019.3
20210723101352 66 34 4.3 7.8 0.00 0.00 0.00 74 1019.2
20210723100854 66 49 5.2 7.8 0.00 0.00 0.00 73 1019.3
20210723100351 66 28 5.2 7.8 0.00 0.00 0.00 73 1019.4
20210723095851 66 24 5.2 7.8 0.00 0.00 0.00 75 1019.4
20210723095353 66 28 5.2 7.8 0.00 0.00 0.00 75 1019.5
20210723094851 66 36 4.3 7.8 0.00 0.00 0.00 75 1019.6
20210723094353 66 41 3.5 7.0 0.00 0.00 0.00 75 1019.6
20210723093855 66 28 2.6 7.0 0.00 0.00 0.00 75 1019.7
20210723093351 65 317 2.6 5.2 0.00 0.00 0.00 75 1019.7
20210723092853 65 344 2.6 5.2 0.00 0.00 0.00 75 1019.7
20210723092349 65 16 2.6 5.2 0.00 0.00 0.00 75 1019.8
20210723091849 65 38 2.6 4.3 0.00 0.00 0.00 75 1019.8
20210723091349 65 28 2.6 7.0 0.00 0.00 0.00 75 1019.9
20210723090851 65 26 2.6 7.0 0.00 0.00 0.00 76 1020.0
20210723090353 65 350 2.6 6.1 0.00 0.00 0.00 75 1019.9
20210723085850 65 35 3.5 6.1 0.00 0.00 0.00 75 1020.0
20210723085349 65 30 3.5 6.1 0.00 0.00 0.00 76 1020.0
20210723084851 65 32 4.3 6.1 0.00 0.00 0.00 76 1019.9
20210723084349 65 30 3.5 6.1 0.00 0.00 0.00 76 1019.9
20210723083849 65 40 3.5 6.1 0.00 0.00 0.00 76 1020.0
20210723083349 65 39 3.5 7.8 0.00 0.00 0.00 76 1020.0
20210723082848 64 24 3.5 7.8 0.00 0.00 0.00 76 1020.0
20210723082348 64 28 3.5 7.8 0.00 0.00 0.00 75 1020.1
20210723081847 64 21 3.5 7.8 0.00 0.00 0.00 75 1020.0
20210723081344 64 13 3.5 7.0 0.00 0.00 0.00 75 1019.9
20210723080843 64 30 3.5 7.0 0.00 0.00 0.00 75 1020.0
20210723080345 64 5 3.5 7.0 0.00 0.00 0.00 75 1020.0
20210723075844 64 46 3.5 7.0 0.00 0.00 0.00 75 1019.9
20210723075345 64 15 4.3 7.8 0.00 0.00 0.00 75 1019.9
20210723074844 64 30 5.2 8.7 0.00 0.00 0.00 76 1019.9
20210723074345 64 41 6.1 8.7 0.00 0.00 0.00 75 1019.9
20210723073844 64 38 6.1 8.7 0.00 0.00 0.00 75 1019.9
20210723073343 64 24 6.1 10.4 0.00 0.00 0.00 75 1019.9
20210723072840 64 22 5.2 10.4 0.00 0.00 0.00 75 1019.9
20210723072342 64 27 5.2 10.4 0.00 0.00 0.00 75 1019.8
20210723071843 64 5 6.1 10.4 0.00 0.00 0.00 75 1019.8
20210723071341 64 48 6.1 11.3 0.00 0.00 0.00 76 1019.7
20210723070842 64 25 6.1 11.3 0.00 0.00 0.00 76 1019.8
20210723070342 64 32 7.0 11.3 0.00 0.00 0.00 76 1019.7
20210723065842 64 29 7.0 11.3 0.00 0.00 0.00 76 1019.8
20210723065344 64 25 6.1 9.6 0.00 0.00 0.00 78 1019.7
20210723064840 63 18 7.0 9.6 0.00 0.00 0.00 77 1019.8
20210723064341 63 32 6.1 11.3 0.00 0.00 0.00 76 1019.8
20210723063841 63 19 6.1 10.4 0.00 0.00 0.00 76 1019.9
20210723063344 63 15 6.1 11.3 0.00 0.00 0.00 77 1019.8
20210723062840 63 28 6.1 11.3 0.00 0.00 0.00 77 1019.9
20210723062341 63 36 6.1 11.3 0.00 0.00 0.00 77 1019.9
20210723061841 62 26 7.0 11.3 0.00 0.00 0.00 77 1019.9
20210723061342 62 42 7.8 11.3 0.00 0.00 0.00 77 1019.9
20210723060842 62 19 7.0 11.3 0.00 0.00 0.00 78 1019.9
20210723060341 62 33 7.0 11.3 0.00 0.00 0.00 78 1020.0
20210723055841 62 30 6.1 10.4 0.00 0.00 0.00 79 1020.0
20210723055341 62 22 5.2 9.6 0.00 0.00 0.00 79 1020.0
20210723054842 62 31 6.1 10.4 0.00 0.00 0.00 80 1020.0
20210723054340 62 42 5.2 9.6 0.00 0.00 0.00 80 1020.0
20210723053840 62 43 6.1 9.6 0.00 0.00 0.00 81 1020.1
20210723053339 62 26 6.1 9.6 0.00 0.00 0.00 81 1020.1
20210723052839 62 38 6.1 9.6 0.00 0.00 0.00 81 1020.0
20210723052339 62 15 6.1 8.7 0.00 0.00 0.00 81 1020.0
20210723051840 62 23 6.1 9.6 0.00 0.00 0.00 81 1020.1
20210723051340 62 26 6.1 10.4 0.00 0.00 0.00 81 1020.0
20210723050840 62 28 5.2 9.6 0.00 0.00 0.00 81 1020.1
20210723050340 62 24 4.3 9.6 0.00 0.00 0.00 81 1020.2
20210723045839 62 355 4.3 8.7 0.00 0.00 0.00 82 1020.1
20210723045340 62 32 4.3 8.7 0.00 0.00 0.00 82 1020.1
20210723044842 62 34 4.3 8.7 0.00 0.00 0.00 83 1020.0
20210723044337 62 32 4.3 7.8 0.00 0.00 0.00 83 1020.0
20210723043837 62 22 3.5 7.8 0.00 0.00 0.00 84 1020.1
20210723043338 61 13 4.3 8.7 0.00 0.00 0.00 84 1020.1
20210723042837 61 19 4.3 8.7 0.00 0.00 0.00 84 1020.2
20210723042338 61 350 2.6 8.7 0.00 0.00 0.00 85 1020.2
20210723041837 61 19 1.7 5.2 0.00 0.00 0.00 85 1020.1
20210723041338 61 5 1.7 5.2 0.00 0.00 0.00 85 1020.1
20210723040837 61 28 1.7 6.1 0.00 0.00 0.00 85 1020.1
20210723040337 61 24 0.9 6.1 0.00 0.00 0.00 85 1020.1
20210723035837 61 14 0.0 0.0 0.00 0.00 0.00 86 1020.1
20210723035336 61 13 0.0 0.0 0.00 0.00 0.00 86 1020.1
20210723034834 61 15 0.0 0.0 0.00 0.00 0.00 86 1020.2
20210723034337 61 15 0.0 0.0 0.00 0.00 0.00 86 1020.1
20210723033836 61 342 0.0 0.0 0.00 0.00 0.00 86 1020.1
20210723033335 61 300 0.0 0.0 0.00 0.00 0.00 86 1020.2
20210723032835 61 44 0.0 0.0 0.00 0.00 0.00 86 1020.3
20210723032333 61 44 0.0 0.0 0.00 0.00 0.00 86 1020.3
20210723031832 61 44 0.0 0.0 0.00 0.00 0.00 86 1020.4
20210723031331 61 44 0.0 0.0 0.00 0.00 0.00 86 1020.5
20210723030829 60 44 0.0 0.0 0.00 0.00 0.00 86 1020.4
20210723030330 60 44 0.0 0.0 0.00 0.00 0.00 86 1020.6
20210723025831 60 44 0.0 0.0 0.00 0.00 0.00 86 1020.6
20210723025330 60 44 0.0 0.0 0.00 0.00 0.00 86 1020.7
20210723024829 60 44 0.0 0.0 0.00 0.00 0.00 86 1020.6
20210723024331 60 44 0.0 0.0 0.00 0.00 0.00 87 1020.7
20210723023830 60 44 0.0 0.0 0.00 0.00 0.00 87 1020.6
20210723023329 60 44 0.0 0.0 0.00 0.00 0.00 87 1020.7
20210723022830 60 44 0.0 0.0 0.00 0.00 0.00 87 1020.7
20210723022331 60 44 0.0 0.0 0.00 0.00 0.00 87 1020.8
20210723021829 60 44 0.0 0.0 0.00 0.00 0.00 87 1020.9
20210723021328 60 44 0.0 0.0 0.00 0.00 0.00 87 1020.8
20210723020832 60 44 0.0 0.0 0.00 0.00 0.00 87 1020.8
20210723020328 60 44 0.0 0.0 0.00 0.00 0.00 87 1020.9
20210723015831 60 44 0.0 0.0 0.00 0.00 0.00 88 1020.9
20210723015330 60 44 0.0 0.0 0.00 0.00 0.00 88 1020.9
20210723014829 60 71 0.0 0.0 0.00 0.00 0.00 88 1020.9
20210723014330 60 71 0.0 0.0 0.00 0.00 0.00 88 1021.0
20210723013828 60 71 0.0 0.0 0.00 0.00 0.00 88 1021.0
20210723013328 59 71 0.0 0.0 0.00 0.00 0.00 88 1021.0
20210723012826 59 71 0.0 0.0 0.00 0.00 0.00 88 1020.9
20210723012326 59 71 0.0 0.0 0.00 0.00 0.00 88 1020.9
20210723011827 59 71 0.0 0.0 0.00 0.00 0.00 89 1020.9
20210723011327 59 71 0.0 0.0 0.00 0.00 0.00 89 1021.0
20210723010824 58 71 0.0 0.0 0.00 0.00 0.00 89 1020.9
20210723010322 58 71 0.0 0.0 0.00 0.00 0.00 89 1021.0
20210723005826 58 71 0.0 0.0 0.00 0.00 0.00 89 1021.0
20210723005320 58 71 0.0 0.0 0.00 0.00 0.00 89 1021.0
20210723004822 58 71 0.0 2.6 0.00 0.00 0.00 89 1021.1
20210723004320 58 71 0.0 1.7 0.00 0.00 0.00 89 1021.1
20210723003820 57 71 0.9 2.6 0.00 0.00 0.00 89 1021.1
20210723003321 57 71 0.0 2.6 0.00 0.00 0.00 89 1021.2
20210723002822 57 71 0.9 2.6 0.00 0.00 0.00 89 1021.2
20210723002320 57 71 1.7 2.6 0.00 0.00 0.00 89 1021.2
20210723001824 57 47 1.7 4.3 0.00 0.00 0.00 89 1021.1
20210723001321 57 46 0.9 4.3 0.00 0.00 0.00 89 1021.2
20210723000820 56 44 0.0 2.6 0.00 0.00 0.00 88 1021.2
20210723000320 56 17 0.9 2.6 0.00 0.00 0.00 88 1021.2
20210722235823 56 12 0.9 2.6 0.00 0.00 0.00 88 1021.3
20210722235320 56 12 1.7 2.6 0.00 0.00 0.00 88 1021.3
20210722234818 56 0 0.9 2.6 0.00 0.00 0.00 87 1021.4
20210722234318 57 5 0.9 2.6 0.00 0.00 0.00 87 1021.4
20210722233824 57 355 0.9 2.6 0.00 0.00 0.00 87 1021.5
20210722233320 57 355 0.9 2.6 0.00 0.00 0.00 87 1021.5
20210722232816 57 350 0.9 2.6 0.00 0.00 0.00 87 1021.5
20210722232316 57 5 0.9 2.6 0.00 0.00 0.00 87 1021.4
20210722231816 58 5 0.9 2.6 0.00 0.00 0.00 87 1021.4
20210722231317 58 5 0.9 2.6 0.00 0.00 0.00 87 1021.3
20210722230814 58 5 0.9 1.7 0.00 0.00 0.00 87 1021.3
20210722230316 58 5 0.9 1.7 0.00 0.00 0.00 87 1021.4
20210722225813 58 5 0.9 2.6 0.00 0.00 0.00 87 1021.4
20210722225314 58 5 0.9 2.6 0.00 0.00 0.00 87 1021.4
20210722224810 58 5 0.9 3.5 0.00 0.00 0.00 86 1021.3
20210722224310 58 5 0.9 3.5 0.00 0.00 0.00 87 1021.3
20210722223810 58 9 0.9 2.6 0.00 0.00 0.00 86 1021.4
20210722223310 58 9 0.9 2.6 0.00 0.00 0.00 86 1021.4
20210722222810 58 27 0.9 2.6 0.00 0.00 0.00 86 1021.4
20210722222307 58 27 0.9 2.6 0.00 0.00 0.00 85 1021.4
20210722221809 58 27 0.9 2.6 0.00 0.00 0.00 85 1021.4
20210722221307 58 27 0.9 2.6 0.00 0.00 0.00 85 1021.4
20210722220811 58 27 0.9 2.6 0.00 0.00 0.00 85 1021.5
20210722220306 58 27 1.7 2.6 0.00 0.00 0.00 84 1021.4
20210722215806 58 27 1.7 2.6 0.00 0.00 0.00 84 1021.5
20210722215306 59 27 1.7 2.6 0.00 0.00 0.00 85 1021.6
20210722214806 59 27 1.7 2.6 0.00 0.00 0.00 85 1021.5
20210722214306 59 27 1.7 2.6 0.00 0.00 0.00 84 1021.5
20210722213807 59 0 0.9 2.6 0.00 0.00 0.00 84 1021.6
20210722213304 59 0 0.0 2.6 0.00 0.00 0.00 84 1021.6
20210722212805 59 0 0.9 4.3 0.00 0.00 0.00 84 1021.6
20210722212305 59 0 1.7 3.5 0.00 0.00 0.00 83 1021.6
20210722211801 59 36 2.6 4.3 0.00 0.00 0.00 84 1021.6
20210722211304 60 30 3.5 4.3 0.00 0.00 0.00 84 1021.6
20210722210800 60 40 3.5 4.3 0.00 0.00 0.00 84 1021.5
20210722210302 60 31 3.5 4.3 0.00 0.00 0.00 84 1021.6
20210722205758 60 30 2.6 4.3 0.00 0.00 0.00 84 1021.7
20210722205300 60 24 2.6 4.3 0.00 0.00 0.00 83 1021.6
20210722204759 60 24 2.6 4.3 0.00 0.00 0.00 83 1021.7
20210722204258 60 24 3.5 4.3 0.00 0.00 0.00 83 1021.7
20210722203759 60 25 3.5 4.3 0.00 0.00 0.00 82 1021.8
20210722203258 60 36 2.6 4.3 0.00 0.00 0.00 82 1021.7
20210722202758 60 37 2.6 4.3 0.00 0.00 0.00 81 1021.8
20210722202259 60 32 2.6 4.3 0.00 0.00 0.00 81 1021.7
20210722201757 60 26 3.5 7.0 0.00 0.00 0.00 81 1021.7
20210722201256 61 27 4.3 7.0 0.00 0.00 0.00 80 1021.8
20210722200756 61 33 4.3 7.0 0.00 0.00 0.00 80 1021.7
20210722200254 61 28 4.3 7.0 0.00 0.00 0.00 80 1021.7
20210722195756 61 33 3.5 5.2 0.00 0.00 0.00 80 1021.8
20210722195255 62 26 3.5 5.2 0.00 0.00 0.00 80 1021.7
20210722194755 62 30 2.6 5.2 0.00 0.00 0.00 79 1021.7
20210722194252 62 37 3.5 8.7 0.00 0.00 0.00 79 1021.7
20210722193755 63 22 4.3 8.7 0.00 0.00 0.00 78 1021.6
20210722193250 63 24 5.2 8.7 0.00 0.00 0.00 78 1021.7
20210722192751 64 30 5.2 8.7 0.00 0.00 0.00 77 1021.7
20210722192248 64 26 5.2 8.7 0.00 0.00 0.00 77 1021.7
20210722191748 64 36 6.1 8.7 0.00 0.00 0.00 76 1021.6
20210722191251 65 12 5.2 8.7 0.00 0.00 0.00 76 1021.6
20210722190751 65 41 5.2 7.8 0.00 0.00 0.00 75 1021.6
20210722190249 65 28 6.1 7.8 0.00 0.00 0.00 74 1021.6
20210722185750 66 26 5.2 7.8 0.00 0.00 0.00 74 1021.6
20210722185251 66 32 5.2 9.6 0.00 0.00 0.00 74 1021.6
20210722184750 66 26 5.2 9.6 0.00 0.00 0.00 74 1021.6
20210722184252 67 32 5.2 9.6 0.00 0.00 0.00 73 1021.6
20210722183748 67 44 6.1 9.6 0.00 0.00 0.00 73 1021.6
20210722183249 67 46 6.1 9.6 0.00 0.00 0.00 73 1021.5
20210722182746 67 32 5.2 9.6 0.00 0.00 0.00 72 1021.5
20210722182246 68 31 4.3 8.7 0.00 0.00 0.00 71 1021.6
20210722181746 68 10 5.2 8.7 0.00 0.00 0.00 71 1021.5
20210722181247 68 28 5.2 8.7 0.00 0.00 0.00 71 1021.5
20210722180747 68 25 4.3 9.6 0.00 0.00 0.00 71 1021.6
20210722180245 68 337 4.3 9.6 0.00 0.00 0.00 70 1021.5
20210722175743 69 41 5.2 10.4 0.00 0.00 0.00 70 1021.5
20210722175245 69 47 4.3 10.4 0.00 0.00 0.00 67 1021.4
20210722174743 69 51 3.5 7.8 0.00 0.00 0.00 71 1021.5
20210722174245 69 332 4.3 8.7 0.00 0.00 0.00 71 1021.5
20210722173742 69 25 4.3 8.7 0.00 0.00 0.00 68 1021.5
20210722173241 69 42 4.3 9.6 0.00 0.00 0.00 69 1021.5
20210722172742 69 10 6.1 11.3 0.00 0.00 0.00 68 1021.5
20210722172243 70 351 6.1 11.3 0.00 0.00 0.00 67 1021.5
20210722171743 70 32 6.1 9.6 0.00 0.00 0.00 65 1021.5
20210722171244 70 32 5.2 9.6 0.00 0.00 0.00 65 1021.6
20210722170742 71 26 5.2 8.7 0.00 0.00 0.00 65 1021.6
20210722170242 71 16 5.2 8.7 0.00 0.00 0.00 63 1021.7
20210722165744 71 26 5.2 10.4 0.00 0.00 0.00 65 1021.6
20210722165243 71 28 4.3 10.4 0.00 0.00 0.00 63 1021.7
20210722164744 71 20 4.3 9.6 0.00 0.00 0.00 68 1021.7
20210722164242 71 5 5.2 10.4 0.00 0.00 0.00 65 1021.6
20210722163742 72 25 4.3 10.4 0.00 0.00 0.00 63 1021.8
20210722163240 72 355 4.3 7.8 0.00 0.00 0.00 65 1021.8
20210722162738 72 31 5.2 11.3 0.00 0.00 0.00 65 1021.9
20210722162240 72 34 5.2 11.3 0.00 0.00 0.00 63 1021.8
20210722161739 72 17 6.1 10.4 0.00 0.00 0.00 63 1021.9
20210722161241 72 19 6.1 10.4 0.00 0.00 0.00 61 1022.0
20210722160738 72 23 6.1 10.4 0.00 0.00 0.00 62 1021.9
20210722160238 72 25 5.2 10.4 0.00 0.00 0.00 63 1022.0
20210722155737 72 37 6.1 11.3 0.00 0.00 0.00 63 1022.0
20210722155238 72 342 6.1 13.9 0.00 0.00 0.00 68 1022.1
20210722154736 72 24 5.2 13.9 0.00 0.00 0.00 65 1022.0